Wind_Speed
4 4 4 4 4 4 4 4 4 5 6 7 7 7 7 8 8 8 8 7 7 7 7 7 7 7 7 7 7 7 7 6 6 6 6 6 6 7 7 7 7 7 7
5 5 5 5 5 5 5 5 4 5 5 6 6 6 6 7 7 7 7 6 6 6 6 6 6 6 6 6 6 6 6 6 6 6 6 6 6 6 6 7 7 7 7
6 6 6 6 6 6 6 6 6 5 5 5 5 6 6 6 6 6 6 6 5 5 5 5 4 5 5 5 5 5 5 5 5 5 6 6 6 6 6 6 6 7 7
7 7 7 7 7 7 7 7 7 6 6 6 6 6 5 5 6 6 6 6 5 5 4 4 4 3 4 4 4 4 4 4 5 5 5 5 5 6 6 6 6 6 7
8 8 8 9 9 9 8 8 8 8 7 7 7 6 6 6 6 6 6 6 6 6 5 5 4 4 3 3 3 3 3 4 4 4 4 4 5 5 5 5 6 6 7
10 9 9 9 10 10 9 8 8 8 8 8 8 7 7 7 7 7 7 7 7 6 6 6 5 5 4 4 4 4 3 3 3 4 4 4 4 5 5 5 6 6 6
11 11 10 10 10 11 10 9 9 8 8 9 8 8 8 8 8 8 9 9 8 8 7 7 6 6 6 5 5 4 4 4 4 4 4 4 4 5 5 6 6 6 6
12 12 12 12 12 11 11 10 10 9 9 9 9 9 9 8 9 9 10 10 10 9 9 9 8 8 7 7 6 6 6 5 5 5 5 5 5 6 6 6 6 6 6
13 13 13 13 13 13 12 12 11 11 10 10 10 10 10 10 10 10 10 11 12 12 11 11 10 10 9 9 8 8 8 7 7 7 7 7 7 7 7 7 7 7 7
14 14 13 13 14 14 14 13 12 12 12 11 11 11 11 10 11 11 11 11 12 13 13 13 12 12 11 11 10 10 10 10 10 10 9 8 8 9 9 8 8 8 8
15 14 14 14 14 14 15 15 14 13 13 13 13 12 12 12 12 12 12 12 12 14 15 15 15 14 14 13 13 11 11 12 12 12 11 11 10 10 10 10 10 10 9
14 15 15 16 15 15 15 16 15 14 14 14 14 13 13 13 13 13 13 13 13 13 14 15 15 16 15 16 15 14 13 14 14 13 13 13 12 12 12 12 12 12 11
15 15 16 16 15 16 16 15 16 15 15 14 14 13 13 14 14 15 14 14 14 14 13 15 15 16 16 17 17 16 16 16 15 15 15 15 14 14 14 13 14 14 14
14 15 16 16 16 16 16 16 16 16 15 15 15 14 14 14 15 15 14 13 13 14 14 15 16 16 16 17 18 18 18 17 17 17 17 17 16 16 16 15 16 16 16
13 14 15 16 16 16 16 16 16 16 16 15 15 15 16 15 14 14 13 13 14 15 15 15 16 16 16 17 18 19 20 19 19 19 19 18 17 17 18 17 17 18 18
14 14 14 14 15 16 16 16 15 15 16 15 13 13 14 14 14 14 13 13 14 15 15 16 16 17 18 18 18 19 21 21 21 21 21 20 20 19 20 20 20 20 20
13 13 13 14 14 15 15 15 14 14 14 13 12 12 13 14 14 14 13 13 13 15 15 16 17 17 18 18 18 19 21 22 22 22 22 22 22 21 21 21 22 21 21
10 11 12 12 12 13 14 14 13 13 13 13 13 12 13 13 13 13 13 13 14 15 16 16 17 17 18 18 18 19 20 21 22 23 24 24 23 23 23 23 23 22 21
8 8 9 10 11 11 11 12 11 11 11 11 11 11 12 12 13 13 14 14 14 15 16 16 17 17 18 18 19 19 20 22 23 23 24 25 25 25 24 25 25 24 23
6 7 8 9 9 10 10 10 10 10 10 10 10 10 11 12 12 13 14 14 15 15 16 16 17 18 18 18 19 19 19 21 23 24 25 26 26 27 27 27 27 26 25
4 6 7 7 8 8 9 9 10 9 9 9 8 9 10 11 12 12 13 13 14 15 16 17 17 17 17 18 19 20 20 20 22 24 25 26 27 28 29 28 28 27 26
2 3 4 5 6 7 7 7 7 7 7 7 8 8 9 10 11 11 12 13 13 14 14 15 16 16 17 18 19 20 20 21 21 23 24 25 27 27 29 29 29 29 29
2 2 3 3 3 4 5 5 5 5 5 6 6 6 8 9 9 10 11 12 13 13 13 14 15 15 16 17 18 19 20 21 21 22 24 26 27 28 29 31 31 31 31
2 2 2 2 1 2 3 3 3 4 4 4 5 6 7 7 8 9 10 11 12 12 13 13 14 15 16 17 18 19 20 21 22 22 24 25 27 28 29 29 31 33 33
2 2 2 2 1 1 1 1 2 3 3 4 4 5 6 6 7 7 8 9 11 11 12 12 13 14 15 16 17 18 20 21 22 23 24 25 27 27 29 30 31 33 34
3 3 2 1 1 1 1 0 0 1 2 3 4 4 4 5 6 7 8 8 10 10 11 11 12 13 14 15 16 18 19 21 22 23 24 25 27 27 28 30 31 32 34
Wind_Direction
209 208 204 208 210 210 204 180 166 158 145 138 131 126 123 119 116 113 110 106 104 102 97 95 92 90 88 87 89 90 90 91 93 99 101 101 103 107 109 112 116 115 116
224 211 209 214 220 220 214 201 187 178 165 155 147 143 140 135 130 125 120 116 114 113 110 107 102 97 94 94 93 92 92 95 99 101 106 110 113 113 114 117 118 119 119
226 220 215 215 221 225 220 213 205 196 184 177 169 163 160 154 148 143 137 132 127 125 124 124 120 113 108 105 103 100 99 101 107 106 109 112 117 117 121 122 120 124 125
231 230 225 220 224 223 218 217 213 206 200 194 189 184 180 176 171 164 159 155 152 150 150 148 146 139 130 125 123 117 112 109 112 113 115 118 123 126 129 129 127 129 133
235 237 230 224 227 226 222 219 218 212 210 208 205 202 200 197 193 189 187 182 177 177 176 174 174 171 166 161 155 147 133 125 124 126 128 129 133 137 139 143 140 138 138
236 235 232 227 229 228 225 220 219 218 218 217 216 214 215 214 210 208 207 204 199 198 195 193 193 194 192 187 178 169 159 151 149 150 150 149 150 152 154 150 146 146 147
237 236 232 233 230 228 224 222 221 222 223 223 221 220 222 224 222 219 221 218 214 214 210 206 205 206 204 202 195 189 181 176 177 176 175 173 172 171 166 161 157 157 157
240 238 238 233 228 223 220 223 224 224 227 226 227 226 228 232 232 230 229 226 222 219 218 216 213 214 212 212 210 206 201 195 196 196 194 194 191 187 183 175 170 167 167
244 241 240 233 227 220 221 225 226 227 230 232 230 230 234 237 237 237 237 234 230 227 224 223 221 221 222 221 218 216 213 210 206 205 204 206 205 199 194 187 183 180 177
240 237 233 229 227 224 225 227 229 229 231 235 233 233 238 241 241 239 239 239 235 232 229 227 225 225 227 227 225 224 219 217 216 211 210 212 212 209 204 198 194 191 191
238 240 232 229 228 225 225 226 227 229 231 235 237 242 245 246 246 245 246 243 239 236 234 233 231 229 230 230 228 226 223 223 221 218 215 215 215 215 214 208 204 201 200
238 235 231 230 231 228 226 226 227 229 232 236 240 246 251 252 253 252 253 246 239 238 239 236 237 236 232 232 230 228 227 226 224 221 220 219 220 222 221 216 212 209 206
232 232 232 235 234 233 229 228 228 232 237 241 245 249 253 255 256 254 251 249 244 243 244 241 239 240 236 235 232 231 228 227 226 225 225 224 225 227 227 223 216 213 212
232 234 234 236 240 234 232 232 231 235 242 246 250 252 255 256 259 256 253 252 251 250 250 249 243 245 239 237 236 232 229 228 228 227 227 228 228 230 230 229 222 218 216
232 234 233 237 238 235 236 236 232 238 242 246 251 255 258 258 260 257 254 254 253 254 253 253 248 249 243 241 239 236 234 235 232 230 230 231 231 232 232 231 228 222 220
234 234 237 237 236 237 239 238 236 238 242 245 249 253 257 257 257 258 258 257 257 256 257 254 254 252 248 245 241 239 239 237 236 234 234 233 233 235 234 234 234 228 222
230 232 235 238 240 239 238 236 237 242 245 244 248 254 256 256 257 258 259 258 260 260 258 257 255 254 253 252 247 244 242 239 237 237 238 236 235 237 238 239 237 236 230
230 231 233 235 240 239 236 236 241 246 249 249 249 252 257 259 261 263 261 260 263 263 262 260 259 259 258 256 253 249 245 240 238 240 240 239 238 239 240 241 238 238 237
225 227 227 231 236 238 235 238 243 248 253 252 252 256 260 261 264 266 264 261 263 265 263 261 260 260 259 256 255 254 249 243 241 242 241 240 241 240 241 242 239 239 240
224 230 230 238 236 238 238 240 244 248 252 252 256 261 262 264 266 269 268 267 267 266 265 263 262 262 260 257 255 254 253 250 246 246 244 243 244 243 243 243 241 240 242
226 231 233 237 236 237 239 238 241 247 252 253 257 263 265 268 271 271 269 269 270 270 267 265 265 262 259 259 258 257 255 253 251 249 249 247 246 245 244 243 243 243 244
222 219 226 234 233 234 235 238 243 249 256 258 264 267 271 274 274 273 273 271 271 271 270 268 265 262 260 259 259 258 257 257 254 252 250 248 248 247 245 244 245 245 246
139 176 211 229 232 232 227 231 234 252 260 264 270 272 277 277 277 277 276 276 275 273 273 273 269 267 265 264 262 259 257 257 257 255 252 250 250 250 248 247 246 245 246
113 139 170 178 200 207 214 228 242 260 271 277 282 284 282 282 284 283 280 279 278 278 277 277 274 271 269 267 265 262 260 258 257 256 255 253 252 252 250 249 247 246 246
112 124 136 147 144 156 195 226 255 270 281 289 292 291 291 291 294 294 289 287 285 284 282 281 277 275 273 271 268 265 262 261 259 258 257 256 254 252 251 251 250 249 248
116 125 124 121 114 102 103 91 338 309 305 301 301 303 305 308 311 310 304 297 293 292 291 288 285 282 280 277 273 270 266 264 263 261 259 258 258 256 253 251 250 250 249
Height
5899 5899 5899 5900 5901 5901 5901 5901 5901 5901 5901 5901 5901 5901 5901 5901 5901 5901 5902 5902 5902 5902 5902 5902 5903 5902 5902 5902 5902 5902 5902 5902 5902 5902 5902 5902 5902 5902 5902 5902 5902 5902 5903
5898 5898 5899 5899 5900 5900 5900 5900 5900 5901 5900 5900 5901 5901 5901 5901 5901 5902 5902 5902 5902 5903 5903 5903 5903 5903 5903 5903 5903 5903 5903 5903 5903 5903 5903 5903 5903 5903 5904 5903 5904 5904 5904
5897 5897 5897 5898 5898 5899 5899 5899 5899 5900 5900 5900 5900 5900 5900 5901 5901 5901 5902 5902 5902 5903 5903 5903 5904 5904 5904 5904 5904 5904 5904 5904 5904 5904 5904 5904 5904 5904 5904 5905 5905 5905 5906
5895 5895 5895 5896 5897 5897 5898 5898 5898 5898 5899 5899 5899 5900 5900 5900 5901 5901 5901 5902 5902 5903 5903 5903 5904 5904 5904 5904 5904 5904 5904 5904 5905 5905 5905 5905 5905 5905 5905 5906 5906 5906 5907
5893 5893 5893 5894 5895 5895 5896 5897 5897 5897 5898 5898 5898 5899 5899 5900 5900 5900 5901 5901 5901 5902 5903 5903 5903 5904 5904 5904 5904 5905 5905 5905 5905 5905 5905 5905 5906 5906 5906 5907 5907 5907 5908
5890 5891 5891 5892 5893 5893 5894 5894 5895 5896 5896 5897 5897 5897 5898 5898 5899 5899 5900 5900 5901 5901 5902 5902 5903 5903 5904 5904 5904 5904 5905 5905 5905 5905 5906 5906 5906 5906 5907 5907 5908 5908 5909
5888 5888 5889 5890 5890 5891 5892 5893 5893 5894 5894 5895 5895 5896 5896 5897 5898 5898 5899 5899 5900 5900 5901 5901 5902 5902 5903 5903 5904 5904 5905 5905 5905 5906 5906 5906 5907 5907 5908 5908 5909 5909 5910
5885 5886 5886 5887 5888 5888 5889 5890 5891 5892 5892 5893 5893 5894 5895 5895 5896 5896 5897 5897 5898 5899 5900 5900 5901 5901 5902 5903 5903 5903 5904 5904 5905 5906 5906 5907 5907 5907 5908 5909 5909 5910 5911
5882 5882 5884 5884 5885 5886 5887 5888 5889 5890 5890 5891 5891 5892 5893 5893 5894 5894 5895 5895 5896 5897 5898 5898 5899 5900 5901 5901 5902 5902 5903 5904 5904 5905 5906 5907 5907 5907 5908 5909 5909 5910 5911
5878 5879 5880 5881 5882 5883 5884 5885 5886 5887 5888 5889 5889 5890 5890 5891 5891 5892 5892 5893 5894 5894 5895 5896 5897 5898 5899 5900 5900 5901 5902 5902 5903 5904 5905 5906 5906 5907 5908 5908 5909 5910 5911
5875 5876 5877 5878 5879 5880 5881 5882 5883 5884 5885 5886 5887 5887 5888 5888 5889 5889 5889 5890 5891 5892 5892 5893 5894 5895 5896 5897 5898 5899 5900 5900 5901 5902 5903 5904 5905 5906 5907 5907 5909 5910 5911
5871 5872 5874 5875 5876 5877 5878 5879 5880 5881 5882 5883 5884 5885 5885 5885 5885 5886 5886 5887 5888 5888 5889 5890 5891 5892 5893 5894 5895 5896 5897 5898 5899 5900 5901 5902 5904 5904 5905 5906 5907 5909 5910
5868 5869 5871 5872 5873 5874 5875 5876 5877 5878 5880 5880 5881 5882 5882 5882 5882 5883 5883 5883 5884 5885 5886 5887 5888 5889 5890 5891 5892 5893 5894 5895 5896 5898 5899 5900 5902 5902 5903 5905 5906 5907 5909
5865 5867 5868 5869 5870 5871 5872 5873 5874 5875 5876 5878 5878 5879 5879 5879 5879 5879 5879 5880 5881 5882 5882 5883 5884 5885 5886 5887 5888 5890 5891 5892 5893 5895 5896 5897 5899 5900 5901 5902 5904 5905 5907
5862 5864 5865 5866 5867 5868 5869 5870 5871 5872 5873 5875 5875 5875 5875 5875 5876 5876 5876 5877 5877 5878 5879 5879 5880 5881 5882 5883 5884 5886 5887 5889 5890 5891 5893 5894 5896 5897 5898 5899 5900 5902 5904
5859 5861 5862 5863 5864 5865 5866 5867 5868 5869 5870 5871 5872 5872 5872 5873 5873 5873 5873 5873 5874 5875 5875 5876 5877 5878 5878 5879 5880 5881 5883 5885 5886 5887 5889 5891 5892 5893 5895 5896 5897 5899 5901
5857 5858 5860 5861 5862 5863 5864 5865 5865 5866 5867 5868 5869 5869 5869 5870 5870 5870 5870 5871 5871 5871 5872 5872 5873 5873 5874 5875 5876 5877 5879 5880 5882 5883 5885 5886 5888 5889 5891 5892 5894 5895 5897
5855 5856 5857 5858 5859 5860 5861 5862 5863 5864 5864 5865 5866 5866 5866 5867 5867 5867 5867 5868 5868 5868 5868 5868 5869 5870 5870 5871 5872 5873 5874 5875 5877 5879 5880 5882 5883 5885 5887 5888 5890 5892 5894
5854 5854 5855 5856 5857 5858 5859 5860 5861 5861 5862 5863 5863 5863 5864 5864 5864 5864 5864 5864 5864 5864 5865 5865 5865 5866 5866 5867 5868 5868 5869 5870 5872 5874 5876 5877 5879 5880 5882 5884 5885 5887 5889
5852 5853 5854 5854 5855 5856 5857 5858 5859 5859 5860 5860 5861 5861 5861 5861 5861 5860 5860 5860 5860 5861 5861 5861 5862 5862 5862 5863 5863 5864 5865 5866 5867 5869 5870 5872 5874 5875 5877 5879 5881 5882 5884
5852 5852 5853 5853 5854 5855 5856 5856 5857 5858 5858 5858 5858 5858 5858 5858 5857 5857 5858 5857 5857 5857 5857 5857 5857 5858 5858 5858 5859 5860 5860 5861 5862 5864 5865 5867 5868 5869 5871 5873 5875 5877 5879
5851 5851 5851 5852 5853 5853 5854 5855 5855 5856 5856 5856 5856 5855 5855 5855 5855 5854 5854 5854 5854 5853 5853 5853 5853 5853 5853 5854 5854 5855 5856 5857 5857 5858 5860 5861 5863 5864 5865 5867 5869 5871 5873
5851 5851 5852 5852 5852 5852 5852 5853 5853 5854 5854 5854 5854 5853 5853 5853 5852 5852 5851 5851 5850 5850 5850 5849 5849 5849 5849 5849 5849 5850 5851 5852 5852 5853 5854 5855 5857 5858 5859 5861 5863 5865 5867
5851 5851 5852 5852 5852 5851 5852 5852 5852 5852 5852 5852 5852 5852 5851 5851 5850 5849 5848 5848 5847 5846 5846 5846 5845 5845 5845 5845 5845 5845 5846 5846 5847 5848 5849 5849 5850 5852 5853 5855 5856 5858 5860
5851 5851 5852 5852 5851 5851 5851 5851 5851 5851 5851 5850 5850 5850 5849 5849 5848 5847 5846 5845 5844 5843 5842 5842 5841 5841 5840 5840 5840 5840 5840 5840 5841 5842 5842 5843 5844 5845 5847 5848 5849 5851 5853
5852 5852 5852 5852 5851 5851 5851 5851 5850 5850 5850 5849 5849 5848 5848 5847 5846 5845 5844 5842 5841 5840 5839 5838 5837 5837 5836 5835 5835 5835 5835 5835 5835 5836 5836 5837 5837 5838 5840 5841 5842 5844 5845